Hourly Data Report for October 27, 2014

All times are specified in Local Standard Time (LST). Add 1 hour to adjust for Daylight Saving Time where and when it is observed.

ST LEONARD CS
NEW BRUNSWICK

47°09'28.050" N
67°49'55.014" W
245.00 m
810I001
71019
WIY

Download Data

Hourly Data (October 2014)
Hourly Data Report for October 27, 2014
Temp Definition
°C
Dew Point Temp Definition
°C
Rel Hum Definition
%
Wind Dir Definition
10's deg

Wind Spd Definition
km/h
Visibility Definition
km
Stn Press Definition
kPa
Hmdx Definition


Wind Chill Definition


Weather Definition


TIME
00:00 3.3 2.9 97 30 3   96.87     LegendNANA
01:00 3.2 2.8 97 30 3   96.88     LegendNANA
02:00 3.1 2.8 98 29 2   96.87     LegendNANA
03:00 2.6 2.3 98 30 5   96.88     LegendNANA
04:00 2.5 2.2 98 30 3   96.91     LegendNANA
05:00 2.4 2.0 97 30 3   96.96     LegendNANA
06:00 2.6 2.2 97 30 2   96.99     LegendNANA
07:00 2.9 2.0 94 31 8   97.06     LegendNANA
08:00 2.4 1.5 94 30 6   97.13     LegendNANA
09:00 2.9 1.8 92 30 5   97.23     LegendNANA
10:00 3.6 2.3 92 30 5   97.28     LegendNANA
11:00 4.1 1.9 86 31 8   97.36     LegendNANA
12:00 4.6 1.8 82 32 7   97.39     LegendNANA
13:00 5.5 1.8 77 30 16   97.42     LegendNANA
14:00 6.2 2.2 76 30 11   97.45     LegendNANA
15:00 6.0 1.9 75 31 6   97.50     LegendNANA
16:00 5.8 1.6 75 31 9   97.59     LegendNANA
17:00 5.6 1.6 76 31 8   97.68     LegendNANA
18:00 4.7 1.4 80 31 6   97.77     LegendNANA
19:00 4.8 1.7 80 32 4   97.87     LegendNANA
20:00 5.0 1.3 77 32 6   97.91     LegendNANA
21:00 4.9 1.2 77 32 5   98.01     LegendNANA
22:00 4.6 1.4 79 32 5   98.12     LegendNANA
23:00 4.5 1.4 80 33 6   98.18     LegendNANA

Notes on Data Quality.

Legend

  • E = Estimated
  • M = Missing
  • NA = Not Available
  • ‡ = Partner data that is not subject to review by the National Climate Archives
Date modified: